Satellite: NOAA-12 Catalog number: 21263 Epoch time: 12312.44526103 Element set: 600 Inclination: 098.7180 deg RA of node: 333.3765 deg Eccentricity: 0.0014215 Arg of perigee: 141.7380 deg Mean anomaly: 218.4813 deg Mean motion: 14.25528533 rev/day Decay rate: 9.6e-07 rev/day^2 Epoch rev: 11696 Checksum: 271
Satellite: MET-3/5 Catalog number: 21655 Epoch time: 12312.19650018 Element set: 545 Inclination: 082.5586 deg RA of node: 051.1455 deg Eccentricity: 0.0012381 Arg of perigee: 327.7723 deg Mean anomaly: 032.2641 deg Mean motion: 13.17041703 rev/day Decay rate: -1.0e-08 rev/day^2 Epoch rev: 2071 Checksum: 250
Satellite: MET-2/21 Catalog number: 22782 Epoch time: 12310.95891467 Element set: 573 Inclination: 082.5457 deg RA of node: 280.0195 deg Eccentricity: 0.0023925 Arg of perigee: 113.0467 deg Mean anomaly: 247.3226 deg Mean motion: 13.83691309 rev/day Decay rate: 4.6e-07 rev/day^2 Epoch rev: 96877 Checksum: 323
Satellite: OKEAN-4 Catalog number: 23317 Epoch time: 12311.91730499 Element set: 47 Inclination: 082.5388 deg RA of node: 257.7327 deg Eccentricity: 0.0019246 Arg of perigee: 238.9471 deg Mean anomaly: 120.9856 deg Mean motion: 14.84076049 rev/day Decay rate: 9.63e-06 rev/day^2 Epoch rev: 97597 Checksum: 343
Satellite: NOAA-14 Catalog number: 23455 Epoch time: 12312.42063652 Element set: 82 Inclination: 098.8217 deg RA of node: 034.0659 deg Eccentricity: 0.0008687 Arg of perigee: 270.8220 deg Mean anomaly: 089.1958 deg Mean motion: 14.13879752 rev/day Decay rate: 5.6e-07 rev/day^2 Epoch rev: 92103 Checksum: 307
Satellite: NOAA-15 Catalog number: 25338 Epoch time: 12312.07398347 Element set: 471 Inclination: 098.7044 deg RA of node: 297.7433 deg Eccentricity: 0.0011562 Arg of perigee: 055.1352 deg Mean anomaly: 305.0930 deg Mean motion: 14.25141797 rev/day Decay rate: 1.95e-06 rev/day^2 Epoch rev: 75320 Checksum: 295
Satellite: RESURS Catalog number: 25394 Epoch time: 12311.16686336 Element set: 225 Inclination: 098.3348 deg RA of node: 292.0365 deg Eccentricity: 0.0001376 Arg of perigee: 142.1057 deg Mean anomaly: 218.0220 deg Mean motion: 14.24306063 rev/day Decay rate: 3.4e-07 rev/day^2 Epoch rev: 74461 Checksum: 261
Satellite: FENGYUN1 Catalog number: 25730 Epoch time: 12310.95296749 Element set: 733 Inclination: 098.8563 deg RA of node: 267.5650 deg Eccentricity: 0.0020907 Arg of perigee: 319.3517 deg Mean anomaly: 040.6090 deg Mean motion: 14.09818734 rev/day Decay rate: 5.59e-06 rev/day^2 Epoch rev: 69458 Checksum: 330
Satellite: OKEAN-0 Catalog number: 25860 Epoch time: 12311.85671143 Element set: 780 Inclination: 097.9562 deg RA of node: 271.7466 deg Eccentricity: 0.0001540 Arg of perigee: 096.0091 deg Mean anomaly: 264.1293 deg Mean motion: 14.74374554 rev/day Decay rate: 4.31e-06 rev/day^2 Epoch rev: 71559 Checksum: 301
Satellite: NOAA-16 Catalog number: 26536 Epoch time: 12312.31001555 Element set: 959 Inclination: 099.0767 deg RA of node: 356.5209 deg Eccentricity: 0.0011007 Arg of perigee: 044.1314 deg Mean anomaly: 316.0725 deg Mean motion: 14.12803055 rev/day Decay rate: 1.82e-06 rev/day^2 Epoch rev: 62524 Checksum: 268
Satellite: NOAA-17 Catalog number: 27453 Epoch time: 12312.17480350 Element set: 900 Inclination: 098.3258 deg RA of node: 331.9191 deg Eccentricity: 0.0012723 Arg of perigee: 096.7608 deg Mean anomaly: 263.5021 deg Mean motion: 14.24504555 rev/day Decay rate: 1.70e-06 rev/day^2 Epoch rev: 53911 Checksum: 279
Satellite: NOAA-18 Catalog number: 28654 Epoch time: 12312.30650797 Element set: 382 Inclination: 099.0665 deg RA of node: 271.7246 deg Eccentricity: 0.0014968 Arg of perigee: 111.0829 deg Mean anomaly: 249.1960 deg Mean motion: 14.11727850 rev/day Decay rate: 5.32e-06 rev/day^2 Epoch rev: 38475 Checksum: 321
Satellite: NOAA-19 Catalog number: 33591 Epoch time: 12312.27566813 Element set: 569 Inclination: 098.8778 deg RA of node: 250.3756 deg Eccentricity: 0.0014149 Arg of perigee: 340.8294 deg Mean anomaly: 019.2353 deg Mean motion: 14.11411713 rev/day Decay rate: -7.2e-07 rev/day^2 Epoch rev: 19319 Checksum: 313
/EX SB KEPS @ AMSAT $ORB12313.M Orbital Elements 12313.MISC
HR AMSAT ORBITAL ELEMENTS FOR MANNED AND MISCELLANEOUS SATELLITES FROM WA5QGD FORT WORTH,TX November 8, 2012 BID: ORB12313.M TO ALL RADIO AMATEURS BT
Satellite: HUBBLE Catalog number: 20580 Epoch time: 12311.38332071 Element set: 104 Inclination: 028.4700 deg RA of node: 292.7077 deg Eccentricity: 0.0003654 Arg of perigee: 133.7621 deg Mean anomaly: 226.3272 deg Mean motion: 15.02995751 rev/day Decay rate: 1.657e-05 rev/day^2 Epoch rev: 3613 Checksum: 259
Satellite: ISS Catalog number: 25544 Epoch time: 12313.29469907 Element set: 611 Inclination: 051.6480 deg RA of node: 125.5966 deg Eccentricity: 0.0015398 Arg of perigee: 257.8149 deg Mean anomaly: 100.7055 deg Mean motion: 15.51216053 rev/day Decay rate: 5.971e-05 rev/day^2 Epoch rev: 80039 Checksum: 301
Satellite: CO-58 Catalog number: 28895 Epoch time: 12311.08388889 Element set: 320 Inclination: 097.8933 deg RA of node: 170.9692 deg Eccentricity: 0.0018803 Arg of perigee: 066.1396 deg Mean anomaly: 294.1784 deg Mean motion: 14.60825777 rev/day Decay rate: 3.07e-06 rev/day^2 Epoch rev: 37437 Checksum: 360
Satellite: FALCON Catalog number: 30776 Epoch time: 12311.92451149 Element set: 477 Inclination: 035.4388 deg RA of node: 124.3099 deg Eccentricity: 0.0001310 Arg of perigee: 265.1924 deg Mean anomaly: 094.8645 deg Mean motion: 15.08736050 rev/day Decay rate: 3.052e-05 rev/day^2 Epoch rev: 31181 Checksum: 280
Satellite: MAST Catalog number: 31126 Epoch time: 12311.92542844 Element set: 600 Inclination: 097.8752 deg RA of node: 314.6945 deg Eccentricity: 0.0094274 Arg of perigee: 026.3504 deg Mean anomaly: 334.2448 deg Mean motion: 14.54321306 rev/day Decay rate: 3.74e-06 rev/day^2 Epoch rev: 29501 Checksum: 278
Satellite: CAPE1 Catalog number: 31130 Epoch time: 12311.94103340 Element set: 611 Inclination: 097.8855 deg RA of node: 311.0320 deg Eccentricity: 0.0102063 Arg of perigee: 040.2703 deg Mean anomaly: 320.6034 deg Mean motion: 14.53151733 rev/day Decay rate: 6.74e-06 rev/day^2 Epoch rev: 29450 Checksum: 226
Satellite: COMPASS Catalog number: 32787 Epoch time: 12311.71812050 Element set: 457 Inclination: 097.7839 deg RA of node: 009.8143 deg Eccentricity: 0.0014256 Arg of perigee: 317.4502 deg Mean anomaly: 042.5608 deg Mean motion: 14.84592172 rev/day Decay rate: 1.051e-05 rev/day^2 Epoch rev: 24495 Checksum: 290
Satellite: AAUSAT2 Catalog number: 32788 Epoch time: 12312.12639799 Element set: 448 Inclination: 097.7842 deg RA of node: 010.6800 deg Eccentricity: 0.0013174 Arg of perigee: 317.0953 deg Mean anomaly: 042.9299 deg Mean motion: 14.84969274 rev/day Decay rate: 1.616e-05 rev/day^2 Epoch rev: 24504 Checksum: 323
Satellite: DO-64 Catalog number: 32789 Epoch time: 12311.74344952 Element set: 465 Inclination: 097.7969 deg RA of node: 012.9171 deg Eccentricity: 0.0013390 Arg of perigee: 312.0469 deg Mean anomaly: 047.9594 deg Mean motion: 14.86880729 rev/day Decay rate: 2.882e-05 rev/day^2 Epoch rev: 24505 Checksum: 345
Satellite: CO-66 Catalog number: 32791 Epoch time: 12312.10549172 Element set: 446 Inclination: 097.7819 deg RA of node: 009.8082 deg Eccentricity: 0.0014221 Arg of perigee: 316.2646 deg Mean anomaly: 043.7490 deg Mean motion: 14.83902155 rev/day Decay rate: 7.65e-06 rev/day^2 Epoch rev: 24493 Checksum: 307
Satellite: RS-30 Catalog number: 32953 Epoch time: 12312.07559149 Element set: 301 Inclination: 082.5044 deg RA of node: 206.2825 deg Eccentricity: 0.0019742 Arg of perigee: 359.6176 deg Mean anomaly: 000.4887 deg Mean motion: 12.43029233 rev/day Decay rate: 1.0e-07 rev/day^2 Epoch rev: 20231 Checksum: 262
Satellite: PHARMSAT Catalog number: 35002 Epoch time: 12226.86484473 Element set: 78 Inclination: 040.4341 deg RA of node: 050.6671 deg Eccentricity: 0.0012079 Arg of perigee: 300.9773 deg Mean anomaly: 059.0492 deg Mean motion: 16.39309245 rev/day Decay rate: 7.728342e-02 rev/day^2 Epoch rev: 18355 Checksum: 302
Satellite: METEOR-M Catalog number: 35865 Epoch time: 12312.07027100 Element set: 939 Inclination: 098.6366 deg RA of node: 003.5818 deg Eccentricity: 0.0002885 Arg of perigee: 016.6942 deg Mean anomaly: 343.4331 deg Mean motion: 14.21873510 rev/day Decay rate: -8.0e-08 rev/day^2 Epoch rev: 16290 Checksum: 280
Satellite: RS-38 Catalog number: 35869 Epoch time: 12312.21043084 Element set: 917 Inclination: 098.6315 deg RA of node: 003.6891 deg Eccentricity: 0.0004984 Arg of perigee: 008.7326 deg Mean anomaly: 351.3931 deg Mean motion: 14.22097032 rev/day Decay rate: 4.4e-07 rev/day^2 Epoch rev: 16294 Checksum: 296
Satellite: JUGNU Catalog number: 37839 Epoch time: 12310.99484575 Element set: 263 Inclination: 019.9566 deg RA of node: 219.1300 deg Eccentricity: 0.0019022 Arg of perigee: 347.2108 deg Mean anomaly: 012.7767 deg Mean motion: 14.12100389 rev/day Decay rate: 6.20e-06 rev/day^2 Epoch rev: 5531 Checksum: 280
Satellite: SRMSAT Catalog number: 37841 Epoch time: 12311.87943196 Element set: 265 Inclination: 019.9690 deg RA of node: 221.4421 deg Eccentricity: 0.0011984 Arg of perigee: 314.0997 deg Mean anomaly: 045.8470 deg Mean motion: 14.10177303 rev/day Decay rate: 2.64e-06 rev/day^2 Epoch rev: 5535 Checksum: 291
Satellite: RAX-2 Catalog number: 37853 Epoch time: 12311.90945335 Element set: 334 Inclination: 101.7039 deg RA of node: 057.1449 deg Eccentricity: 0.0242279 Arg of perigee: 303.3071 deg Mean anomaly: 054.5134 deg Mean motion: 14.81264372 rev/day Decay rate: 2.724e-05 rev/day^2 Epoch rev: 5551 Checksum: 278
